Location: ??
(35.4032°N, 139.3073°E)
Time: 16:33:02
(UTC+00:00)

Daily predictions for brighter satellites

Satellite Brightness Start Highest point End
(mag) Time Altitude Azimuth Time Altitude Azimuth Time Altitude Azimuth
Terra 3.6 12:21:05 28° NNW 12:21:05 28° NNW 12:23:20 10° NNW
SJ 16-02 4.2 12:21:57 10° W 12:22:47 10° W 12:22:47 10° W
CZ-4C R/B 4.4 12:44:56 10° N 12:50:35 27° NE 12:50:35 27° NE
Cosmos 2227 Rocket 4.4 12:54:53 10° N 12:56:43 19° N 12:56:43 19° N
Cosmos 2297 Rocket 4.4 13:23:31 10° NNW 13:25:12 20° NNW 13:25:12 20° NNW
CZ-4C R/B 4.5 14:32:27 10° NW 14:35:40 29° NW 14:35:40 29° NW
CENTAUR R/B 4.2 14:53:38 10° NNW 14:58:27 40° NNW 14:58:27 40° NNW
ADEOS II 4.1 16:26:30 10° NNE 16:28:46 24° NE 16:28:46 24° NE
CZ-2D R/B 3.9 16:35:27 10° NNE 16:37:51 28° NNE 16:37:51 28° NNE
COSMOS 2428 3.9 16:52:45 38° NNE 16:52:45 38° NNE 16:56:12 10° NNE
Cosmos 2237 Rocket 3.6 17:00:15 32° E 17:00:15 32° E 17:04:34 10° NE
CZ-2C R/B 4.1 17:04:00 32° N 17:04:00 32° N 17:06:48 10° N
Nadezhda 4 Rocket 4.5 17:02:57 56° NE 17:02:57 56° NE 17:07:55 10° NNE
NOSS 0 Rocket 4.3 17:12:18 60° ENE 17:12:18 60° ENE 17:17:34 10° NNE
Cosmos 2333 Rocket 4.3 17:16:56 15° NNW 17:16:56 15° NNW 17:18:50 10° NNW
CZ-2C R/B 4.2 17:11:08 10° N 17:14:14 38° N 17:14:14 38° N
Resurs 1-4 Rocket 3.8 17:18:10 10° N 17:20:34 24° NNW 17:20:34 24° NNW
Lacrosse 5 4.2 17:28:54 14° NNW 17:28:54 14° NNW 17:31:28 10° N
Cosmos 2278 Rocket 3.4 17:31:15 10° N 17:36:36 40° ENE 17:41:52 10° SE
Cosmos 2219 Rocket 4.1 17:40:34 17° NW 17:40:34 17° NW 17:43:05 10° NNW
ALOS 3.2 17:35:54 10° N 17:38:56 41° N 17:38:56 41° N
Cosmos 1092 Rocket 4.0 17:43:04 58° SSE 17:44:15 75° E 17:50:23 10° N
Cosmos 1680 Rocket 4.1 17:45:12 48° SE 17:45:57 52° ESE 17:51:06 10° NNE
SL-16 R/B 4.1 17:46:09 14° SSE 17:49:45 24° ESE 17:54:13 10° NE
SL-16 R/B 2.5 17:51:17 61° W 17:51:17 61° W 17:57:01 10° NNW
Cosmos 2026 Rocket 3.9 17:51:12 57° S 17:52:36 88° E 17:58:58 10° N
Meteor 2-10 4.4 17:50:13 10° N 17:55:52 71° E 17:59:23 24° SSE
METEOR-M 4.2 17:53:43 10° NNE 17:59:04 76° ESE 18:00:17 54° S
Meteor 1-19 Rocket 4.2 17:58:40 67° WSW 17:59:07 70° W 18:05:06 10° N
Sich 1 3.9 17:54:56 10° N 17:57:44 41° N 17:57:44 41° N
CZ-2C R/B 2.8 17:59:49 68° N 17:59:49 68° N 18:06:19 10° N
ATLAS 2AS CENTAUR R/B 3.4 18:00:11 28° S 18:04:07 55° ESE 18:11:11 10° NE
Cosmos 1743 Rocket 4.1 18:01:08 10° N 18:04:19 48° NNW 18:04:19 48° NNW
ADEOS II 3.7 18:06:54 10° NNW 18:09:39 20° NW 18:09:39 20° NW
Cosmos 1733 4.3 18:07:30 10° N 18:09:39 34° N 18:09:39 34° N
Cosmos 1340 Rocket 2.8 18:11:35 71° E 18:11:35 71° E 18:15:18 10° NNE
Cosmos 1627 Rocket 4.5 18:10:36 48° SW 18:12:13 65° W 18:18:33 10° N
PAYLOAD A 4.1 18:10:07 10° NNE 18:14:59 66° ESE 18:17:05 33° S
CZ-2C R/B 2.5 18:13:24 10° NNE 18:18:36 85° ESE 18:20:47 36° S
CZ-2D R/B 4.3 18:18:25 10° NW 18:19:09 11° NW 18:19:09 11° NW
YAOGAN 6 2.6 18:17:24 10° NNE 18:20:17 64° NE 18:20:17 64° NE
Cosmos 923 Rocket 4.2 18:20:30 48° W 18:21:03 50° WNW 18:26:09 10° N
Meteor 1-27 Rocket 4.3 18:24:51 36° W 18:25:19 37° WNW 18:30:37 10° N
Cosmos 1805 3.3 18:23:04 10° N 18:26:46 70° E 18:28:48 25° SSE
USA 308 3.4 18:26:41 36° SSE 18:27:22 39° SE 18:31:01 10° ENE
CZ-3 Stage 3 4.3 18:22:09 26° W 18:28:01 58° SSW 18:31:46 10° ESE
Envisat 3.1 18:26:57 10° N 18:31:53 53° WNW 18:33:20 39° WSW
Meteor 2-4 Rocket 3.5 18:29:47 28° SSW 18:32:42 79° W 18:38:11 10° N
Cosmos 1151 Rocket 4.1 18:36:57 28° WNW 18:36:57 28° WNW 18:40:12 10° NNW
Cosmos 1943 Rocket 2.3 18:33:07 10° NNW 18:38:48 76° ENE 18:44:28 10° SSE
Iridium 51 4.5 18:38:03 15° SSE 18:40:46 56° E 18:44:04 10° N
NOAA 11 4.4 18:38:03 10° N 18:43:20 52° WNW 18:46:09 27° SW
Cosmos 2237 Rocket 3.1 18:42:05 27° W 18:43:32 30° WNW 18:48:30 10° N
Cosmos 1461 2.4 18:41:24 10° NNW 18:45:13 76° WSW 18:49:00 10° SSE
Sakura Rocket 4.4 18:46:00 18° S 18:46:00 18° S 18:48:01 10° SSE
Thor Agena Rocket 3.6 18:41:24 10° N 18:46:17 53° WNW 18:48:55 26° SW
Cosmos 921 Rocket 3.0 18:46:11 33° SW 18:47:52 60° WNW 18:52:07 10° N
Cosmos 2266 Rocket 4.3 18:41:52 10° S 18:47:54 65° E 18:53:53 10° NNE
Cosmos 1515 Rocket 4.1 18:44:42 10° S 18:49:04 61° E 18:53:28 10° NNE
H-2A R/B 3.0 18:45:07 10° NNE 18:49:58 48° E 18:54:55 10° S
Delta 128 4.5 18:49:06 27° SSW 18:50:11 30° S 18:54:12 10° ESE
Cosmos 1939 Rocket 4.4 18:55:01 10° NNE 18:58:29 34° E 19:01:57 10° SSE
Cosmos 1470 Rocket 3.9 18:54:11 10° N 18:58:33 69° E 19:02:57 10° SSE
Cosmos 1867 4.3 18:55:53 10° NW 19:00:33 29° WSW 19:05:11 10° S
DMSP B5D2-2 4.0 18:55:39 10° S 19:00:49 70° WSW 19:06:01 10° NNW
Cosmos 1766 3.6 19:02:18 10° N 19:05:57 63° E 19:09:36 10° SSE
Cosmos 1674 3.1 19:03:14 10° S 19:06:35 55° E 19:09:57 10° NNE
Cosmos 1975 3.2 19:03:38 10° NNW 19:07:13 38° W 19:10:48 10° SSW
KORONAS-FOTON 4.5 19:07:29 10° S 19:11:04 53° E 19:14:38 10° NNE
Cosmos 1666 Rocket 4.1 19:07:56 10° NNW 19:12:02 37° W 19:16:06 10° SSW
Cosmos 1553 Rocket 4.2 19:09:26 10° NNW 19:15:25 49° W 19:21:17 10° SSW
Cosmos 1340 3.2 19:16:18 10° NNW 19:19:21 30° W 19:22:23 10° SSW
Cosmos 1484 Rocket 2.5 19:16:45 10° N 19:20:18 62° WNW 19:23:50 10° SSW
Cosmos 2278 Rocket 3.2 19:15:55 10° NW 19:20:20 24° W 19:24:45 10° SSW
CRYOSAT 2 4.5 19:15:50 10° N 19:20:35 54° W 19:25:18 10° SSW
Intercosmos 25 Rocket 4.5 19:18:49 10° NW 19:22:12 30° W 19:26:58 10° SSW
Cosmos 1626 3.0 19:20:48 17° WSW 19:22:23 23° WNW 19:25:05 10° NNW
Cosmos 1048 Rocket 4.0 19:19:33 10° SSW 19:24:52 73° WNW 19:30:10 10° NNE
ATLAS 5 CENTAUR R/B 3.5 19:20:32 12° WSW 19:25:14 18° SSW 19:28:26 10° SSE
Cosmos 1933 Rocket 3.9 19:21:35 10° N 19:25:56 70° E 19:30:13 10° SSE
ASTRO E2 4.0 19:27:29 10° SW 19:30:24 24° SSE 19:33:19 10° ESE
SL-16 R/B 2.8 19:28:19 10° SW 19:33:33 39° WNW 19:38:50 10° N
ARGOS 3.8 19:33:05 10° NNE 19:38:24 61° E 19:43:40 10° S
ARIANE 5 R/B 3.0 19:34:11 10° NNE 19:39:24 68° ESE 19:44:34 10° S
H-2A R/B 2.3 19:37:21 10° N 19:40:41 67° WNW 19:43:58 10° SSW
Cosmos 1842 3.6 19:41:15 10° SSW 19:44:44 39° W 19:48:16 10° N
Cosmos 2056 Rocket 4.2 19:40:01 10° NW 19:44:51 34° W 19:49:41 10° SSW
Cosmos 1656 Rocket 3.9 19:43:27 10° NNW 19:48:53 75° ENE 19:54:16 10° SSE
BlueWalker 3 1.9 19:45:21 10° NW 19:49:10 82° SW 19:52:58 10° SE
Cosmos 1452 Rocket 3.9 19:46:54 10° NNW 19:52:09 73° ENE 19:57:22 10° SSE
